Regional Weather Roundup
Issued by NWS

Home | Current Version | Previous Version | Text Only | Print | Product List | Glossary Off
Versions: 1 2 3 4 5 6 7 8 9 10 11 12 13 14 15 16 17 18 19 20 21 22 23 24 25 26 27

000
ASUS45 KSLC 282310
RWRUT

UTAH REGIONAL WEATHER ROUNDUP
NATIONAL WEATHER SERVICE SALT LAKE CITY UT
500 PM MDT THU APR 28 2016

UTZ001>011-023>025-290000-

NORTHERN UTAH

CITY           SKY/WX    TMP DP  RH WIND       PRES   REMARKS
BRIGHAM CITY   MOSUNNY   58  27  31 E21G28    29.78S
HILL AFB       PTSUNNY   47  35  63 E20G31    29.79R
LOGAN          MOSUNNY   55  30  38 E20G32    29.79S
OGDEN          PTSUNNY   54  30  40 E16G25    29.76S
PROVO AIRPORT  PTSUNNY   54  37  54 NW17      29.72R
SALT LAKE CITY CLOUDY    57  35  43 N14       29.75R
VERNAL         LGT RAIN  41  36  82 N8        29.84F
WENDOVER       CLOUDY    54  37  54 W5        29.79S
HEBER CITY     CLOUDY    45  32  61 N20G25    29.77R

$$

UTZ012>022-026-027-290000-

SOUTHERN/CENTRAL UTAH

CITY           SKY/WX    TMP DP  RH WIND       PRES   REMARKS
BLANDING       CLOUDY    46  33  59 E5        29.79F
BRYCE CANYON   CLOUDY    38  32  79 SE8       29.76R WCI  32
CEDAR CITY     LGT RAIN  41  37  86 SE13      29.73R
DELTA          CLOUDY    46  39  76 CALM      29.74S
HANKSVILLE     CLOUDY    45  37  76 NW12G17   29.75F
MILFORD        CLOUDY    52  39  61 NE9       29.72S
MOAB/CYNLANDS  PTSUNNY   53  39  59 NE9       29.72F
PRICE          PTSUNNY   43  37  79 W8        29.76S
ST GEORGE      CLOUDY    63  37  39 SE10      29.70F
KANAB          MOSUNNY   54  37  54 SW10      29.76S

$$

REGIONAL REPORTS     COLORADO/ARIZONA

CITY           SKY/WX    TMP DP  RH WIND       PRES   REMARKS
CRAIG, CO      LGT RAIN  39  35  86 SW3       29.83F
GRAND JUNCTION LGT RAIN  50  41  71 NW13      29.77R
RIFLE          LGT RAIN  50  36  58 SE6       29.78R
MONTROSE       CLOUDY    55  30  38 CALM      29.75F
CORTEZ         CLOUDY    47  36  65 N7        29.78R
PAGE, AZ       PTSUNNY   55  36  48 NE3       29.71F
GRAND CANYON   LGT RAIN  37  34  89 SW6       29.80S FOG     WCI  32
KINGMAN        LGT RAIN  53  44  71 N16       29.76S
FLAGSTAFF      PTSUNNY   42  20  41 SW22G30   29.79S

$$

REGIONAL REPORTS    NEVADA/IDAHO/WYOMING

CITY           SKY/WX    TMP DP  RH WIND       PRES   REMARKS
LAS VEGAS, NV  PTSUNNY   68  44  42 E10G17    29.65F
ELY            CLOUDY    45  34  65 N22G32    29.81R
ELKO           PTSUNNY   56  34  43 NE12G21   29.83S
POCATELLO, ID  CLOUDY    58  30  34 N12       29.79R
BURLEY         PTSUNNY   58  33  39 W7        29.79F
EVANSTON, WY   CLOUDY    36  27  69 E16G29    29.86R WCI  26
ROCK SPRINGS   CLOUDY    34  28  79 NE23G30   29.91R WCI  22
KEMMERER       LGT SNOW  32  30  93 E16G23    29.91R WCI  21

$$




USA.gov is the U.S. government's official web portal to all federal, state and local government web resources and services.